Torna al catalogo

STARLINK-34452

AttivoComunicazioniVLEO
NORAD 64425·PAYLOAD·🇺🇸 United States

Lanciato Jun 17, 2025 da Vandenberg Space Force Base

Loading…

Prossimi Passaggi (prossime 24 ore)

TLE

AggiornatoSource: CelesTrak SupGP

Epoca: Sep 15, 2026, 02:29 UTC

1 64425C 25129P   26258.10395833  .00050809  00000+0  17687-2 0  2585
2 64425  69.9993 315.2808 0003200 267.3616 309.1787 15.29530354    14

Traccia STARLINK-34452 in tempo reale con AllMySat

Download on the App Store